TIANWANG 1A (TW-1A)
1 40928U 15051D   19310.78931978  .00002317  00000-0  57219-4 0  9992
2 40928  97.1335 338.9329 0009011 283.5380 193.4194 15.41474415230901
LAPAN A2
1 40931U 15052B   19308.14990593  .00000506  00000-0 -18695-4 0  9996
2 40931   5.9899 149.2330 0013523 313.9745  46.0045 14.76617760221769
LQSAT
1 40958U 15057A   19310.30602245 +.00000017 +00000-0 +10234-4 0  9992
2 40958 097.8844 015.5953 0018988 146.6134 213.6275 14.73095033219514
CHUBUSAT 2
1 41338U 16012B   19310.48377605  .00000319  00000-0  18141-4 0  9995
2 41338  31.0040 329.9897 0013754  57.8168 302.3800 15.00204627204077
CHUBUSAT 3
1 41339U 16012C   19310.70306564  .00000291  00000-0  15896-4 0  9990
2 41339  31.0116 326.5069 0013468  66.6673 293.5374 15.00376035204101
OUFTI-1
1 41458U 16025C   19310.71579579  .00001107  00000-0  60364-4 0  9992
2 41458  98.1004  44.7371 0164307 242.5732 115.8701 15.06149726193791
E-STAR-2
1 41459U 16025D   19310.89962513 +.00000412 +00000-0 +25630-4 0  9991
2 41459 098.0977 044.5051 0165462 243.4655 114.9503 15.05759477193799
AAUSAT 4
1 41460U 16025E   19310.69421863  .00001435  00000-0  75523-4 0  9991
2 41460  98.0936  45.9018 0155496 235.3701 123.2781 15.07774681193913
NUSAT 1
1 41557U 16033B   19310.70612680  .00001184  00000-0  46668-4 0  9997
2 41557  97.4140  37.3761 0014460 153.7491 206.4484 15.27506725191617
BEESAT 4
1 41619U 16040W   19310.42204218  .00001305  00000-0  57690-4 0  9999
2 41619  97.3519   9.9212 0009749 244.7972 115.2255 15.23435751175284
PRATHAM
1 41783U 16059A   19310.62623448 +.00000042 +00000-0 +17488-4 0  9991
2 41783 098.0509 006.9709 0032372 301.9122 057.8933 14.63018547166155
ALSAT 1N
1 41789U 16059G   19310.76783987  .00000085  00000-0  25236-4 0  9994
2 41789  98.0533   9.4149 0026935 290.1179  69.7116 14.64273646166297
NAYIF 1
1 42017U 17008BX  19310.64408871  .00001377  00000-0  56556-4 0  9991
2 42017  97.3888  16.1958 0007240  44.3694 315.8124 15.25866799151416
MAX VALIER SAT
1 42778U 17036P   19310.27926149 +.00000890 +00000-0 +41620-4 0  9993
2 42778 097.3381 004.7335 0014034 091.3747 268.9097 15.22230698131628
